<?xml version="1.0" encoding="UTF-8" standalone="no" ?>
<gpx xmlns="http://www.topografix.com/GPX/1/1" xmlns:xsi="http://www.w3.org/2001/XMLSchema-instance" xsi:schemaLocation="http://www.topografix.com/GPX/1/1 http://www.topografix.com/GPX/1/1/gpx.xsd" version="1.1" creator="VisuGPX - https://www.visugpx.com">
  <metadata>
    <name>Causse comtal en avant pour 30km de VTT</name>
    <desc><![CDATA[Au départ des randonnées à pied de Sébazac, s'ouvre un espace quasi infini sur le Causse Comtal. Randonneurs et VTTiste y trouverons de nombreuses randonnées, sur des chemins agréables où les grands espaces et les petits chemins sous couvert végétal alternent.
]]></desc>
  </metadata>
  <trk>
    <name><![CDATA[track]]></name>
    <trkseg>
      <trkpt lat="44.40655" lon="2.60061">
        <ele>542</ele>
        <time>2008-08-28T18:32:59Z</time>
      </trkpt>
      <trkpt lat="44.40642" lon="2.60159">
        <ele>551</ele>
        <time>2008-08-28T18:32:59Z</time>
      </trkpt>
      <trkpt lat="44.40779" lon="2.60316">
        <ele>548</ele>
        <time>2008-08-28T18:32:59Z</time>
      </trkpt>
      <trkpt lat="44.40914" lon="2.60462">
        <ele>548</ele>
        <time>2008-08-28T18:32:59Z</time>
      </trkpt>
      <trkpt lat="44.40897" lon="2.60674">
        <ele>563</ele>
        <time>2008-08-28T18:32:59Z</time>
      </trkpt>
      <trkpt lat="44.40768" lon="2.60994">
        <ele>564</ele>
        <time>2008-08-28T18:32:59Z</time>
      </trkpt>
      <trkpt lat="44.40742" lon="2.61243">
        <ele>559</ele>
        <time>2008-08-28T18:32:59Z</time>
      </trkpt>
      <trkpt lat="44.40921" lon="2.61273">
        <ele>554</ele>
        <time>2008-08-28T18:32:59Z</time>
      </trkpt>
      <trkpt lat="44.41099" lon="2.61309">
        <ele>558</ele>
        <time>2008-08-28T18:32:59Z</time>
      </trkpt>
      <trkpt lat="44.4129" lon="2.61344">
        <ele>554</ele>
        <time>2008-08-28T18:32:59Z</time>
      </trkpt>
      <trkpt lat="44.4144" lon="2.61367">
        <ele>554</ele>
        <time>2008-08-28T18:32:59Z</time>
      </trkpt>
      <trkpt lat="44.41627" lon="2.61404">
        <ele>553</ele>
        <time>2008-08-28T18:32:59Z</time>
      </trkpt>
      <trkpt lat="44.41747" lon="2.61522">
        <ele>563</ele>
        <time>2008-08-28T18:32:59Z</time>
      </trkpt>
      <trkpt lat="44.41764" lon="2.61801">
        <ele>568</ele>
        <time>2008-08-28T18:32:59Z</time>
      </trkpt>
      <trkpt lat="44.41751" lon="2.62013">
        <ele>566</ele>
        <time>2008-08-28T18:32:59Z</time>
      </trkpt>
      <trkpt lat="44.41742" lon="2.62275">
        <ele>559</ele>
        <time>2008-08-28T18:32:59Z</time>
      </trkpt>
      <trkpt lat="44.4159" lon="2.62551">
        <ele>590</ele>
        <time>2008-08-28T18:32:59Z</time>
      </trkpt>
      <trkpt lat="44.41444" lon="2.6265">
        <ele>563</ele>
        <time>2008-08-28T18:32:59Z</time>
      </trkpt>
      <trkpt lat="44.41298" lon="2.62681">
        <ele>569</ele>
        <time>2008-08-28T18:32:59Z</time>
      </trkpt>
      <trkpt lat="44.41135" lon="2.62856">
        <ele>568</ele>
        <time>2008-08-28T18:32:59Z</time>
      </trkpt>
      <trkpt lat="44.4103" lon="2.62981">
        <ele>571</ele>
        <time>2008-08-28T18:32:59Z</time>
      </trkpt>
      <trkpt lat="44.41179" lon="2.63039">
        <ele>592</ele>
        <time>2008-08-28T18:32:59Z</time>
      </trkpt>
      <trkpt lat="44.41341" lon="2.63144">
        <ele>571</ele>
        <time>2008-08-28T18:32:59Z</time>
      </trkpt>
      <trkpt lat="44.41487" lon="2.63183">
        <ele>586</ele>
        <time>2008-08-28T18:32:59Z</time>
      </trkpt>
      <trkpt lat="44.41631" lon="2.6335">
        <ele>587</ele>
        <time>2008-08-28T18:32:59Z</time>
      </trkpt>
      <trkpt lat="44.41762" lon="2.6347">
        <ele>587</ele>
        <time>2008-08-28T18:32:59Z</time>
      </trkpt>
      <trkpt lat="44.41921" lon="2.63614">
        <ele>579</ele>
        <time>2008-08-28T18:32:59Z</time>
      </trkpt>
      <trkpt lat="44.42127" lon="2.63689">
        <ele>581</ele>
        <time>2008-08-28T18:32:59Z</time>
      </trkpt>
      <trkpt lat="44.42146" lon="2.63854">
        <ele>588</ele>
        <time>2008-08-28T18:32:59Z</time>
      </trkpt>
      <trkpt lat="44.42094" lon="2.64067">
        <ele>593</ele>
        <time>2008-08-28T18:32:59Z</time>
      </trkpt>
      <trkpt lat="44.42096" lon="2.64281">
        <ele>602</ele>
        <time>2008-08-28T18:32:59Z</time>
      </trkpt>
      <trkpt lat="44.42242" lon="2.64307">
        <ele>603</ele>
        <time>2008-08-28T18:32:59Z</time>
      </trkpt>
      <trkpt lat="44.42423" lon="2.64277">
        <ele>604</ele>
        <time>2008-08-28T18:32:59Z</time>
      </trkpt>
      <trkpt lat="44.42597" lon="2.64213">
        <ele>615</ele>
        <time>2008-08-28T18:32:59Z</time>
      </trkpt>
      <trkpt lat="44.4275" lon="2.64157">
        <ele>607</ele>
        <time>2008-08-28T18:32:59Z</time>
      </trkpt>
      <trkpt lat="44.42775" lon="2.64251">
        <ele>592</ele>
        <time>2008-08-28T18:32:59Z</time>
      </trkpt>
      <trkpt lat="44.42882" lon="2.64427">
        <ele>586</ele>
        <time>2008-08-28T18:32:59Z</time>
      </trkpt>
      <trkpt lat="44.42843" lon="2.64572">
        <ele>590</ele>
        <time>2008-08-28T18:32:59Z</time>
      </trkpt>
      <trkpt lat="44.42787" lon="2.64768">
        <ele>579</ele>
        <time>2008-08-28T18:32:59Z</time>
      </trkpt>
      <trkpt lat="44.42785" lon="2.65028">
        <ele>582</ele>
        <time>2008-08-28T18:32:59Z</time>
      </trkpt>
      <trkpt lat="44.42802" lon="2.65258">
        <ele>577</ele>
        <time>2008-08-28T18:32:59Z</time>
      </trkpt>
      <trkpt lat="44.42841" lon="2.65444">
        <ele>575</ele>
        <time>2008-08-28T18:32:59Z</time>
      </trkpt>
      <trkpt lat="44.42843" lon="2.65659">
        <ele>575</ele>
        <time>2008-08-28T18:32:59Z</time>
      </trkpt>
      <trkpt lat="44.42956" lon="2.65777">
        <ele>588</ele>
        <time>2008-08-28T18:32:59Z</time>
      </trkpt>
      <trkpt lat="44.43141" lon="2.6581">
        <ele>581</ele>
        <time>2008-08-28T18:32:59Z</time>
      </trkpt>
      <trkpt lat="44.43258" lon="2.65848">
        <ele>578</ele>
        <time>2008-08-28T18:32:59Z</time>
      </trkpt>
      <trkpt lat="44.43419" lon="2.65924">
        <ele>580</ele>
        <time>2008-08-28T18:32:59Z</time>
      </trkpt>
      <trkpt lat="44.43358" lon="2.6618">
        <ele>573</ele>
        <time>2008-08-28T18:32:59Z</time>
      </trkpt>
      <trkpt lat="44.43564" lon="2.66292">
        <ele>577</ele>
        <time>2008-08-28T18:32:59Z</time>
      </trkpt>
      <trkpt lat="44.43629" lon="2.66367">
        <ele>577</ele>
        <time>2008-08-28T18:32:59Z</time>
      </trkpt>
      <trkpt lat="44.43769" lon="2.66253">
        <ele>584</ele>
        <time>2008-08-28T18:32:59Z</time>
      </trkpt>
      <trkpt lat="44.43949" lon="2.66141">
        <ele>586</ele>
        <time>2008-08-28T18:32:59Z</time>
      </trkpt>
      <trkpt lat="44.4415" lon="2.6577">
        <ele>583</ele>
        <time>2008-08-28T18:32:59Z</time>
      </trkpt>
      <trkpt lat="44.4435" lon="2.65695">
        <ele>582</ele>
        <time>2008-08-28T18:32:59Z</time>
      </trkpt>
      <trkpt lat="44.44337" lon="2.65854">
        <ele>590</ele>
        <time>2008-08-28T18:32:59Z</time>
      </trkpt>
      <trkpt lat="44.44251" lon="2.66055">
        <ele>594</ele>
        <time>2008-08-28T18:32:59Z</time>
      </trkpt>
      <trkpt lat="44.44452" lon="2.66363">
        <ele>602</ele>
        <time>2008-08-28T18:32:59Z</time>
      </trkpt>
      <trkpt lat="44.44588" lon="2.66144">
        <ele>596</ele>
        <time>2008-08-28T18:32:59Z</time>
      </trkpt>
      <trkpt lat="44.44664" lon="2.66044">
        <ele>597</ele>
        <time>2008-08-28T18:32:59Z</time>
      </trkpt>
      <trkpt lat="44.44719" lon="2.65963">
        <ele>597</ele>
        <time>2008-08-28T18:32:59Z</time>
      </trkpt>
      <trkpt lat="44.44858" lon="2.65926">
        <ele>602</ele>
        <time>2008-08-28T18:32:59Z</time>
      </trkpt>
      <trkpt lat="44.44852" lon="2.65738">
        <ele>600</ele>
        <time>2008-08-28T18:32:59Z</time>
      </trkpt>
      <trkpt lat="44.44815" lon="2.65517">
        <ele>605</ele>
        <time>2008-08-28T18:32:59Z</time>
      </trkpt>
      <trkpt lat="44.44783" lon="2.65367">
        <ele>603</ele>
        <time>2008-08-28T18:32:59Z</time>
      </trkpt>
      <trkpt lat="44.44702" lon="2.65291">
        <ele>596</ele>
        <time>2008-08-28T18:32:59Z</time>
      </trkpt>
      <trkpt lat="44.44887" lon="2.65217">
        <ele>594</ele>
        <time>2008-08-28T18:32:59Z</time>
      </trkpt>
      <trkpt lat="44.44964" lon="2.65149">
        <ele>596</ele>
        <time>2008-08-28T18:32:59Z</time>
      </trkpt>
      <trkpt lat="44.44972" lon="2.64796">
        <ele>589</ele>
        <time>2008-08-28T18:32:59Z</time>
      </trkpt>
      <trkpt lat="44.44948" lon="2.64537">
        <ele>586</ele>
        <time>2008-08-28T18:32:59Z</time>
      </trkpt>
      <trkpt lat="44.4497" lon="2.64364">
        <ele>581</ele>
        <time>2008-08-28T18:32:59Z</time>
      </trkpt>
      <trkpt lat="44.45088" lon="2.64195">
        <ele>565</ele>
        <time>2008-08-28T18:32:59Z</time>
      </trkpt>
      <trkpt lat="44.45197" lon="2.63857">
        <ele>560</ele>
        <time>2008-08-28T18:32:59Z</time>
      </trkpt>
      <trkpt lat="44.45346" lon="2.63512">
        <ele>558</ele>
        <time>2008-08-28T18:32:59Z</time>
      </trkpt>
      <trkpt lat="44.45572" lon="2.63162">
        <ele>553</ele>
        <time>2008-08-28T18:32:59Z</time>
      </trkpt>
      <trkpt lat="44.4563" lon="2.63187">
        <ele>560</ele>
        <time>2008-08-28T18:32:59Z</time>
      </trkpt>
      <trkpt lat="44.45725" lon="2.62855">
        <ele>560</ele>
        <time>2008-08-28T18:32:59Z</time>
      </trkpt>
      <trkpt lat="44.45793" lon="2.62843">
        <ele>557</ele>
        <time>2008-08-28T18:32:59Z</time>
      </trkpt>
      <trkpt lat="44.45763" lon="2.62391">
        <ele>549</ele>
        <time>2008-08-28T18:32:59Z</time>
      </trkpt>
      <trkpt lat="44.45898" lon="2.62322">
        <ele>550</ele>
        <time>2008-08-28T18:32:59Z</time>
      </trkpt>
      <trkpt lat="44.45997" lon="2.62163">
        <ele>556</ele>
        <time>2008-08-28T18:32:59Z</time>
      </trkpt>
      <trkpt lat="44.46122" lon="2.62101">
        <ele>550</ele>
        <time>2008-08-28T18:32:59Z</time>
      </trkpt>
      <trkpt lat="44.4624" lon="2.62017">
        <ele>552</ele>
        <time>2008-08-28T18:32:59Z</time>
      </trkpt>
      <trkpt lat="44.46485" lon="2.6194">
        <ele>552</ele>
        <time>2008-08-28T18:32:59Z</time>
      </trkpt>
      <trkpt lat="44.4663" lon="2.61876">
        <ele>553</ele>
        <time>2008-08-28T18:32:59Z</time>
      </trkpt>
      <trkpt lat="44.46611" lon="2.61713">
        <ele>552</ele>
        <time>2008-08-28T18:32:59Z</time>
      </trkpt>
      <trkpt lat="44.46594" lon="2.61475">
        <ele>550</ele>
        <time>2008-08-28T18:32:59Z</time>
      </trkpt>
      <trkpt lat="44.46538" lon="2.61322">
        <ele>550</ele>
        <time>2008-08-28T18:32:59Z</time>
      </trkpt>
      <trkpt lat="44.4644" lon="2.61151">
        <ele>548</ele>
        <time>2008-08-28T18:32:59Z</time>
      </trkpt>
      <trkpt lat="44.46309" lon="2.61247">
        <ele>550</ele>
        <time>2008-08-28T18:32:59Z</time>
      </trkpt>
      <trkpt lat="44.46161" lon="2.61303">
        <ele>550</ele>
        <time>2008-08-28T18:32:59Z</time>
      </trkpt>
      <trkpt lat="44.4606" lon="2.61339">
        <ele>550</ele>
        <time>2008-08-28T18:32:59Z</time>
      </trkpt>
      <trkpt lat="44.45932" lon="2.61274">
        <ele>549</ele>
        <time>2008-08-28T18:32:59Z</time>
      </trkpt>
      <trkpt lat="44.45701" lon="2.61256">
        <ele>556</ele>
        <time>2008-08-28T18:32:59Z</time>
      </trkpt>
      <trkpt lat="44.45693" lon="2.61348">
        <ele>551</ele>
        <time>2008-08-28T18:32:59Z</time>
      </trkpt>
      <trkpt lat="44.45639" lon="2.61342">
        <ele>551</ele>
        <time>2008-08-28T18:32:59Z</time>
      </trkpt>
      <trkpt lat="44.45562" lon="2.61693">
        <ele>552</ele>
        <time>2008-08-28T18:32:59Z</time>
      </trkpt>
      <trkpt lat="44.45498" lon="2.62013">
        <ele>554</ele>
        <time>2008-08-28T18:32:59Z</time>
      </trkpt>
      <trkpt lat="44.45426" lon="2.62182">
        <ele>548</ele>
        <time>2008-08-28T18:32:59Z</time>
      </trkpt>
      <trkpt lat="44.45346" lon="2.6198">
        <ele>555</ele>
        <time>2008-08-28T18:32:59Z</time>
      </trkpt>
      <trkpt lat="44.4531" lon="2.61735">
        <ele>548</ele>
        <time>2008-08-28T18:32:59Z</time>
      </trkpt>
      <trkpt lat="44.45288" lon="2.61516">
        <ele>548</ele>
        <time>2008-08-28T18:32:59Z</time>
      </trkpt>
      <trkpt lat="44.45239" lon="2.61346">
        <ele>555</ele>
        <time>2008-08-28T18:32:59Z</time>
      </trkpt>
      <trkpt lat="44.45217" lon="2.61195">
        <ele>567</ele>
        <time>2008-08-28T18:32:59Z</time>
      </trkpt>
      <trkpt lat="44.451" lon="2.61169">
        <ele>567</ele>
        <time>2008-08-28T18:32:59Z</time>
      </trkpt>
      <trkpt lat="44.45189" lon="2.60852">
        <ele>565</ele>
        <time>2008-08-28T18:32:59Z</time>
      </trkpt>
      <trkpt lat="44.45236" lon="2.60706">
        <ele>568</ele>
        <time>2008-08-28T18:32:59Z</time>
      </trkpt>
      <trkpt lat="44.45238" lon="2.60578">
        <ele>564</ele>
        <time>2008-08-28T18:32:59Z</time>
      </trkpt>
      <trkpt lat="44.45269" lon="2.60398">
        <ele>560</ele>
        <time>2008-08-28T18:32:59Z</time>
      </trkpt>
      <trkpt lat="44.45242" lon="2.60272">
        <ele>549</ele>
        <time>2008-08-28T18:32:59Z</time>
      </trkpt>
      <trkpt lat="44.45229" lon="2.60109">
        <ele>549</ele>
        <time>2008-08-28T18:32:59Z</time>
      </trkpt>
      <trkpt lat="44.4521" lon="2.59981">
        <ele>553</ele>
        <time>2008-08-28T18:32:59Z</time>
      </trkpt>
      <trkpt lat="44.45229" lon="2.59927">
        <ele>551</ele>
        <time>2008-08-28T18:32:59Z</time>
      </trkpt>
      <trkpt lat="44.45261" lon="2.5987">
        <ele>559</ele>
        <time>2008-08-28T18:32:59Z</time>
      </trkpt>
      <trkpt lat="44.45369" lon="2.59922">
        <ele>550</ele>
        <time>2008-08-28T18:32:59Z</time>
      </trkpt>
      <trkpt lat="44.4554" lon="2.60052">
        <ele>548</ele>
        <time>2008-08-28T18:32:59Z</time>
      </trkpt>
      <trkpt lat="44.45682" lon="2.60099">
        <ele>550</ele>
        <time>2008-08-28T18:32:59Z</time>
      </trkpt>
      <trkpt lat="44.45693" lon="2.5996">
        <ele>553</ele>
        <time>2008-08-28T18:32:59Z</time>
      </trkpt>
      <trkpt lat="44.45684" lon="2.59702">
        <ele>553</ele>
        <time>2008-08-28T18:32:59Z</time>
      </trkpt>
      <trkpt lat="44.45652" lon="2.59531">
        <ele>555</ele>
        <time>2008-08-28T18:32:59Z</time>
      </trkpt>
      <trkpt lat="44.45624" lon="2.5935">
        <ele>556</ele>
        <time>2008-08-28T18:32:59Z</time>
      </trkpt>
      <trkpt lat="44.45603" lon="2.59176">
        <ele>559</ele>
        <time>2008-08-28T18:32:59Z</time>
      </trkpt>
      <trkpt lat="44.45596" lon="2.59037">
        <ele>556</ele>
        <time>2008-08-28T18:32:59Z</time>
      </trkpt>
      <trkpt lat="44.45492" lon="2.59093">
        <ele>560</ele>
        <time>2008-08-28T18:32:59Z</time>
      </trkpt>
      <trkpt lat="44.45414" lon="2.58874">
        <ele>562</ele>
        <time>2008-08-28T18:32:59Z</time>
      </trkpt>
      <trkpt lat="44.45317" lon="2.58741">
        <ele>560</ele>
        <time>2008-08-28T18:32:59Z</time>
      </trkpt>
      <trkpt lat="44.45236" lon="2.58679">
        <ele>560</ele>
        <time>2008-08-28T18:32:59Z</time>
      </trkpt>
      <trkpt lat="44.45143" lon="2.58591">
        <ele>558</ele>
        <time>2008-08-28T18:32:59Z</time>
      </trkpt>
      <trkpt lat="44.45053" lon="2.58505">
        <ele>556</ele>
        <time>2008-08-28T18:32:59Z</time>
      </trkpt>
      <trkpt lat="44.44944" lon="2.58395">
        <ele>558</ele>
        <time>2008-08-28T18:32:59Z</time>
      </trkpt>
      <trkpt lat="44.44903" lon="2.58138">
        <ele>555</ele>
        <time>2008-08-28T18:32:59Z</time>
      </trkpt>
      <trkpt lat="44.44841" lon="2.58005">
        <ele>556</ele>
        <time>2008-08-28T18:32:59Z</time>
      </trkpt>
      <trkpt lat="44.44768" lon="2.57868">
        <ele>557</ele>
        <time>2008-08-28T18:32:59Z</time>
      </trkpt>
      <trkpt lat="44.44627" lon="2.57922">
        <ele>563</ele>
        <time>2008-08-28T18:32:59Z</time>
      </trkpt>
      <trkpt lat="44.44487" lon="2.57959">
        <ele>570</ele>
        <time>2008-08-28T18:32:59Z</time>
      </trkpt>
      <trkpt lat="44.44401" lon="2.57979">
        <ele>566</ele>
        <time>2008-08-28T18:32:59Z</time>
      </trkpt>
      <trkpt lat="44.44294" lon="2.58013">
        <ele>569</ele>
        <time>2008-08-28T18:32:59Z</time>
      </trkpt>
      <trkpt lat="44.44178" lon="2.58035">
        <ele>570</ele>
        <time>2008-08-28T18:32:59Z</time>
      </trkpt>
      <trkpt lat="44.44064" lon="2.58029">
        <ele>571</ele>
        <time>2008-08-28T18:32:59Z</time>
      </trkpt>
      <trkpt lat="44.43963" lon="2.58005">
        <ele>571</ele>
        <time>2008-08-28T18:32:59Z</time>
      </trkpt>
      <trkpt lat="44.43789" lon="2.57975">
        <ele>569</ele>
        <time>2008-08-28T18:32:59Z</time>
      </trkpt>
      <trkpt lat="44.43695" lon="2.57893">
        <ele>572</ele>
        <time>2008-08-28T18:32:59Z</time>
      </trkpt>
      <trkpt lat="44.43648" lon="2.57754">
        <ele>578</ele>
        <time>2008-08-28T18:32:59Z</time>
      </trkpt>
      <trkpt lat="44.43697" lon="2.57664">
        <ele>584</ele>
        <time>2008-08-28T18:32:59Z</time>
      </trkpt>
      <trkpt lat="44.43656" lon="2.57541">
        <ele>591</ele>
        <time>2008-08-28T18:32:59Z</time>
      </trkpt>
      <trkpt lat="44.43599" lon="2.57576">
        <ele>588</ele>
        <time>2008-08-28T18:32:59Z</time>
      </trkpt>
      <trkpt lat="44.43538" lon="2.57559">
        <ele>588</ele>
        <time>2008-08-28T18:32:59Z</time>
      </trkpt>
      <trkpt lat="44.43457" lon="2.57574">
        <ele>589</ele>
        <time>2008-08-28T18:32:59Z</time>
      </trkpt>
      <trkpt lat="44.4341" lon="2.57464">
        <ele>598</ele>
        <time>2008-08-28T18:32:59Z</time>
      </trkpt>
      <trkpt lat="44.433" lon="2.57473">
        <ele>592</ele>
        <time>2008-08-28T18:32:59Z</time>
      </trkpt>
      <trkpt lat="44.43167" lon="2.57458">
        <ele>582</ele>
        <time>2008-08-28T18:32:59Z</time>
      </trkpt>
      <trkpt lat="44.43026" lon="2.57449">
        <ele>573</ele>
        <time>2008-08-28T18:32:59Z</time>
      </trkpt>
      <trkpt lat="44.42852" lon="2.5743">
        <ele>569</ele>
        <time>2008-08-28T18:32:59Z</time>
      </trkpt>
      <trkpt lat="44.42762" lon="2.57417">
        <ele>568</ele>
        <time>2008-08-28T18:32:59Z</time>
      </trkpt>
      <trkpt lat="44.42659" lon="2.57374">
        <ele>569</ele>
        <time>2008-08-28T18:32:59Z</time>
      </trkpt>
      <trkpt lat="44.42588" lon="2.57284">
        <ele>567</ele>
        <time>2008-08-28T18:32:59Z</time>
      </trkpt>
      <trkpt lat="44.42468" lon="2.57267">
        <ele>566</ele>
        <time>2008-08-28T18:32:59Z</time>
      </trkpt>
      <trkpt lat="44.42375" lon="2.57262">
        <ele>563</ele>
        <time>2008-08-28T18:32:59Z</time>
      </trkpt>
      <trkpt lat="44.42272" lon="2.57254">
        <ele>566</ele>
        <time>2008-08-28T18:32:59Z</time>
      </trkpt>
      <trkpt lat="44.42075" lon="2.57265">
        <ele>569</ele>
        <time>2008-08-28T18:32:59Z</time>
      </trkpt>
      <trkpt lat="44.41936" lon="2.57301">
        <ele>569</ele>
        <time>2008-08-28T18:32:59Z</time>
      </trkpt>
      <trkpt lat="44.41785" lon="2.57329">
        <ele>572</ele>
        <time>2008-08-28T18:32:59Z</time>
      </trkpt>
      <trkpt lat="44.41676" lon="2.57312">
        <ele>570</ele>
        <time>2008-08-28T18:32:59Z</time>
      </trkpt>
      <trkpt lat="44.41614" lon="2.57271">
        <ele>569</ele>
        <time>2008-08-28T18:32:59Z</time>
      </trkpt>
      <trkpt lat="44.41575" lon="2.57137">
        <ele>575</ele>
        <time>2008-08-28T18:32:59Z</time>
      </trkpt>
      <trkpt lat="44.41521" lon="2.57231">
        <ele>577</ele>
        <time>2008-08-28T18:32:59Z</time>
      </trkpt>
      <trkpt lat="44.41472" lon="2.57313">
        <ele>577</ele>
        <time>2008-08-28T18:32:59Z</time>
      </trkpt>
      <trkpt lat="44.41418" lon="2.57411">
        <ele>572</ele>
        <time>2008-08-28T18:32:59Z</time>
      </trkpt>
      <trkpt lat="44.41309" lon="2.57593">
        <ele>574</ele>
        <time>2008-08-28T18:32:59Z</time>
      </trkpt>
      <trkpt lat="44.41225" lon="2.57728">
        <ele>575</ele>
        <time>2008-08-28T18:32:59Z</time>
      </trkpt>
      <trkpt lat="44.41101" lon="2.57906">
        <ele>575</ele>
        <time>2008-08-28T18:32:59Z</time>
      </trkpt>
      <trkpt lat="44.40858" lon="2.58215">
        <ele>575</ele>
        <time>2008-08-28T18:32:59Z</time>
      </trkpt>
      <trkpt lat="44.40676" lon="2.58466">
        <ele>577</ele>
        <time>2008-08-28T18:32:59Z</time>
      </trkpt>
      <trkpt lat="44.40519" lon="2.58681">
        <ele>577</ele>
        <time>2008-08-28T18:32:59Z</time>
      </trkpt>
      <trkpt lat="44.40479" lon="2.58711">
        <ele>577</ele>
        <time>2008-08-28T18:32:59Z</time>
      </trkpt>
      <trkpt lat="44.40442" lon="2.58749">
        <ele>577</ele>
        <time>2008-08-28T18:32:59Z</time>
      </trkpt>
      <trkpt lat="44.40363" lon="2.5879">
        <ele>580</ele>
        <time>2008-08-28T18:32:59Z</time>
      </trkpt>
      <trkpt lat="44.40315" lon="2.58799">
        <ele>582</ele>
        <time>2008-08-28T18:32:59Z</time>
      </trkpt>
      <trkpt lat="44.40328" lon="2.58844">
        <ele>580</ele>
        <time>2008-08-28T18:32:59Z</time>
      </trkpt>
      <trkpt lat="44.40376" lon="2.58825">
        <ele>579</ele>
        <time>2008-08-28T18:32:59Z</time>
      </trkpt>
      <trkpt lat="44.4041" lon="2.5891">
        <ele>579</ele>
        <time>2008-08-28T18:32:59Z</time>
      </trkpt>
      <trkpt lat="44.40483" lon="2.59119">
        <ele>580</ele>
        <time>2008-08-28T18:32:59Z</time>
      </trkpt>
      <trkpt lat="44.40534" lon="2.59273">
        <ele>582</ele>
        <time>2008-08-28T18:32:59Z</time>
      </trkpt>
      <trkpt lat="44.40498" lon="2.59372">
        <ele>585</ele>
        <time>2008-08-28T18:32:59Z</time>
      </trkpt>
      <trkpt lat="44.40487" lon="2.59477">
        <ele>588</ele>
        <time>2008-08-28T18:32:59Z</time>
      </trkpt>
      <trkpt lat="44.40481" lon="2.59535">
        <ele>591</ele>
        <time>2008-08-28T18:32:59Z</time>
      </trkpt>
      <trkpt lat="44.40481" lon="2.59621">
        <ele>595</ele>
        <time>2008-08-28T18:32:59Z</time>
      </trkpt>
      <trkpt lat="44.40481" lon="2.59666">
        <ele>599</ele>
        <time>2008-08-28T18:32:59Z</time>
      </trkpt>
      <trkpt lat="44.40483" lon="2.597">
        <ele>600</ele>
        <time>2008-08-28T18:32:59Z</time>
      </trkpt>
      <trkpt lat="44.40481" lon="2.59732">
        <ele>604</ele>
        <time>2008-08-28T18:32:59Z</time>
      </trkpt>
      <trkpt lat="44.40472" lon="2.5976">
        <ele>605</ele>
        <time>2008-08-28T18:32:59Z</time>
      </trkpt>
      <trkpt lat="44.4047" lon="2.59825">
        <ele>609</ele>
        <time>2008-08-28T18:32:59Z</time>
      </trkpt>
      <trkpt lat="44.40474" lon="2.59857">
        <ele>610</ele>
        <time>2008-08-28T18:32:59Z</time>
      </trkpt>
      <trkpt lat="44.40481" lon="2.59928">
        <ele>610</ele>
        <time>2008-08-28T18:32:59Z</time>
      </trkpt>
      <trkpt lat="44.40476" lon="2.59973">
        <ele>608</ele>
        <time>2008-08-28T18:32:59Z</time>
      </trkpt>
      <trkpt lat="44.40545" lon="2.59968">
        <ele>607</ele>
        <time>2008-08-28T18:32:59Z</time>
      </trkpt>
      <trkpt lat="44.40575" lon="2.6">
        <ele>604</ele>
        <time>2008-08-28T18:32:59Z</time>
      </trkpt>
      <trkpt lat="44.40594" lon="2.60039">
        <ele>603</ele>
        <time>2008-08-28T18:32:59Z</time>
      </trkpt>
      <trkpt lat="44.40605" lon="2.60056">
        <ele>601</ele>
        <time>2008-08-28T18:32:59Z</time>
      </trkpt>
      <trkpt lat="44.40618" lon="2.60063">
        <ele>601</ele>
        <time>2008-08-28T18:32:59Z</time>
      </trkpt>
      <trkpt lat="44.40655" lon="2.60071">
        <ele>599</ele>
        <time>2008-08-28T18:32:59Z</time>
      </trkpt>
      <trkpt lat="44.40655" lon="2.60067">
        <ele>599</ele>
        <time>2008-08-28T18:32:59Z</time>
      </trkpt>
      <trkpt lat="44.40655" lon="2.60067">
        <ele>590</ele>
        <time>2008-08-28T18:32:59Z</time>
      </trkpt>
      <trkpt lat="44.40655" lon="2.60067">
        <ele>545</ele>
        <time>2008-08-28T18:32:59Z</time>
      </trkpt>
      <trkpt lat="44.40655" lon="2.60067">
        <ele>545</ele>
        <time>2008-08-28T18:32:59Z</time>
      </trkpt>
      <trkpt lat="44.40655" lon="2.60067">
        <ele>542</ele>
        <time>2008-08-28T18:32:59Z</time>
      </trkpt>
    </trkseg>
  </trk>
</gpx>